Location: Carbonear
(47.7333°N, 53.2500°W)
Time: 21:37:26
(UTC+00:00)

STRAND 1 - Pass Details

Date: 05 December 2022
Orbit: 768 x 779 km, 98.4° (Epoch: 01 February)

Event Time Altitude Azimuth Distance (km) Brightness Sun altitude
Rises 08:58:24 0° 151° (SSE) 3,242 ? -20.5°
Reaches altitude 10° 09:00:44 10° 147° (SSE) 2,317 ? -20.1°
Maximum altitude 09:05:43 56° 70° (ENE) 922 ? -19.3°
Drops below altitude 10° 09:10:43 10° 354° (N) 2,326 ? -18.5°
Enters shadow 09:13:02 - 350° (N) 3,245 ? -18.1°
